This is the latest recevied weather packets stored in our database for station/object K5WNG. If no packets are shown the sender has not sent any weather packets the latest 10 day(s).
| Time | Temp. | Humidity | Pressure | Rain* | Wind** | Luminosity | Snow |
|---|---|---|---|---|---|---|---|
| 1777318816 | 32.22° C | 66% | 1010 hPa | 0 mm | - | 504 W/m² | - |
| 1777318516 | 31.67° C | 66% | 1010 hPa | 0 mm | - | 1019 W/m² | - |
| 1777318216 | 31.67° C | 67% | 1010.1 hPa | 0 mm | - | 930 W/m² | - |
| 1777317916 | 31.67° C | 67% | 1010.1 hPa | 0 mm | - | 296 W/m² | - |
| 1777317619 | 31.67° C | 67% | 1010.1 hPa | 0 mm | - | 610 W/m² | - |
| 1777317316 | 32.22° C | 67% | 1010 hPa | 0 mm | - | 774 W/m² | - |
| 1777317016 | 32.22° C | 64% | 1010.1 hPa | 0 mm | - | 689 W/m² | - |
| 1777316719 | 32.22° C | 64% | 1010.1 hPa | 0 mm | - | 724 W/m² | - |
| 1777316419 | 32.22° C | 64% | 1010.2 hPa | 0 mm | - | 780 W/m² | - |
| 1777316116 | 32.22° C | 64% | 1010.1 hPa | 0 mm | - | 377 W/m² | - |
| 1777315816 | 32.22° C | 63% | 1010.1 hPa | 0 mm | - | 1078 W/m² | - |
| 1777315519 | 32.22° C | 64% | 1010.2 hPa | 0 mm | - | 1061 W/m² | - |
| 1777315220 | 31.67° C | 65% | 1010.2 hPa | 0 mm | - | 987 W/m² | - |
| 1777314920 | 31.67° C | 65% | 1010.2 hPa | 0 mm | - | 762 W/m² | - |
| 1777314620 | 31.67° C | 65% | 1010.2 hPa | 0 mm | - | 958 W/m² | - |
| 1777314317 | 31.67° C | 66% | 1010.3 hPa | 0 mm | - | 845 W/m² | - |
| 1777314017 | 31.67° C | 66% | 1010.3 hPa | 0 mm | - | 1028 W/m² | - |
| 1777313720 | 31.67° C | 66% | 1010.3 hPa | 0 mm | - | 1026 W/m² | - |
| 1777313417 | 31.67° C | 65% | 1010.3 hPa | 0 mm | - | 1010 W/m² | - |
| 1777313117 | 31.11° C | 66% | 1010.4 hPa | 0 mm | - | 1015 W/m² | - |
| 1777312822 | 31.11° C | 67% | 1010.4 hPa | 0 mm | - | 1029 W/m² | - |
| 1777312517 | 30.56° C | 68% | 1010.5 hPa | 0 mm | - | 1066 W/m² | - |
| 1777312222 | 30° C | 71% | 1010.6 hPa | 0 mm | - | 1057 W/m² | - |
| 1777311917 | 29.44° C | 72% | 1010.8 hPa | 0 mm | - | 381 W/m² | - |
| 1777311622 | 29.44° C | 72% | 1010.8 hPa | 0 mm | - | 546 W/m² | - |
* Rain latest hour (hover to see other rain measurements)
** Current wind speed in m/s (hover to see current wind gust speed)